Hourly Weather Jumilla

Today, 25 September, Friday

Time Temperature Precipitation Wind Pressure Humidity
00:00 +21°C° 0 mm 6 mps 705 mmHg 59%
01:00 +20°C° 0 mm 5 mps 705 mmHg 61%
02:00 +20°C° 0 mm 5 mps 705 mmHg 63%
03:00 +20°C° 0 mm 5 mps 704 mmHg 65%
04:00 +19°C° 0 mm 6 mps 704 mmHg 63%
05:00 +17°C° 0 mm 7 mps 704 mmHg 61%
06:00 +16°C° 0 mm 8 mps 704 mmHg 59%
07:00 +17°C° 0 mm 9 mps 705 mmHg 53%
08:00 +17°C° 0 mm 10 mps 705 mmHg 47%
09:00 +18°C° 0 mm 11 mps 706 mmHg 40%
10:00 +19°C° 0 mm 11 mps 706 mmHg 37%
11:00 +21°C° 0 mm 11 mps 706 mmHg 34%
12:00 +22°C° 0 mm 11 mps 707 mmHg 30%
13:00 +22°C° 0 mm 11 mps 707 mmHg 27%
14:00 +22°C° 0 mm 11 mps 706 mmHg 24%
15:00 +22°C° 0 mm 11 mps 706 mmHg 21%
16:00 +21°C° 0 mm 10 mps 706 mmHg 23%
17:00 +19°C° 0 mm 10 mps 707 mmHg 25%
18:00 +18°C° 0 mm 9 mps 707 mmHg 26%
19:00 +17°C° 0 mm 8 mps 707 mmHg 28%
20:00 +16°C° 0 mm 8 mps 708 mmHg 30%
21:00 +15°C° 0 mm 7 mps 708 mmHg 32%
22:00 +15°C° 0 mm 6 mps 708 mmHg 35%
23:00 +14°C° 0 mm 6 mps 708 mmHg 38%

Tomorrow, 26 September, Saturday

Time Temperature Precipitation Wind Pressure Humidity
00:00 +13°C° 0 mm 5 mps 708 mmHg 41%
01:00 +12°C° 0 mm 5 mps 708 mmHg 43%
02:00 +12°C° 0 mm 4 mps 707 mmHg 44%
03:00 +11°C° 0 mm 4 mps 707 mmHg 45%
04:00 +11°C° 0 mm 4 mps 707 mmHg 46%
05:00 +11°C° 0 mm 4 mps 707 mmHg 46%
06:00 +10°C° 0 mm 4 mps 707 mmHg 47%
07:00 +12°C° 0 mm 5 mps 707 mmHg 43%
08:00 +13°C° 0 mm 6 mps 707 mmHg 40%
09:00 +13°C° 0 mm 8 mps 708 mmHg 36%
10:00 +16°C° 0 mm 8 mps 707 mmHg 33%
11:00 +17°C° 0 mm 8 mps 707 mmHg 30%
12:00 +18°C° 0 mm 8 mps 707 mmHg 27%
13:00 +20°C° 0 mm 8 mps 707 mmHg 28%
14:00 +21°C° 0 mm 8 mps 706 mmHg 29%
15:00 +21°C° 0 mm 8 mps 706 mmHg 30%
16:00 +20°C° 0 mm 7 mps 706 mmHg 32%
17:00 +19°C° 0 mm 6 mps 705 mmHg 33%
18:00 +19°C° 0 mm 6 mps 705 mmHg 35%
19:00 +17°C° 0 mm 6 mps 705 mmHg 36%
20:00 +16°C° 0 mm 5 mps 706 mmHg 36%
21:00 +16°C° 0 mm 5 mps 706 mmHg 37%
22:00 +15°C° 0 mm 5 mps 705 mmHg 39%
23:00 +15°C° 0 mm 5 mps 705 mmHg 41%

Day after tomorrow, 27 September, Sunday

Time Temperature Precipitation Wind Pressure Humidity
00:00 +15°C° 0 mm 5 mps 705 mmHg 43%
01:00 +15°C° 0 mm 5 mps 704 mmHg 44%
02:00 +14°C° 0 mm 5 mps 703 mmHg 45%
03:00 +14°C° 0 mm 5 mps 703 mmHg 46%
04:00 +14°C° 0 mm 5 mps 703 mmHg 47%
05:00 +14°C° 0 mm 5 mps 703 mmHg 47%
06:00 +14°C° 0 mm 5 mps 703 mmHg 48%
07:00 +15°C° 0 mm 7 mps 703 mmHg 45%
08:00 +17°C° 0 mm 8 mps 703 mmHg 43%
09:00 +19°C° 0 mm 9 mps 704 mmHg 41%
10:00 +21°C° 0 mm 9 mps 704 mmHg 38%
11:00 +22°C° 0 mm 9 mps 704 mmHg 36%
12:00 +23°C° 0 mm 9 mps 704 mmHg 34%
13:00 +24°C° 0 mm 8 mps 703 mmHg 32%
14:00 +24°C° 0 mm 8 mps 703 mmHg 31%
15:00 +24°C° 0 mm 8 mps 703 mmHg 29%
16:00 +23°C° 0 mm 7 mps 703 mmHg 32%
17:00 +22°C° 0 mm 6 mps 703 mmHg 34%
18:00 +21°C° 0 mm 5 mps 703 mmHg 37%
19:00 +21°C° 0 mm 4 mps 703 mmHg 40%
20:00 +20°C° 0 mm 3 mps 704 mmHg 42%
21:00 +19°C° 0 mm 2 mps 704 mmHg 45%
22:00 +18°C° 0 mm 2 mps 704 mmHg 47%
23:00 +17°C° 0 mm 2 mps 704 mmHg 50%

28 September, Monday

Time Temperature Precipitation Wind Pressure Humidity
00:00 +16°C° 0 mm 2 mps 704 mmHg 52%
01:00 +16°C° 0 mm 2 mps 704 mmHg 55%
02:00 +15°C° 0 mm 2 mps 703 mmHg 58%
03:00 +14°C° 0 mm 1 mps 703 mmHg 61%
04:00 +14°C° 0 mm 1 mps 703 mmHg 61%
05:00 +13°C° 0 mm 1 mps 704 mmHg 62%
06:00 +13°C° 0 mm 1 mps 704 mmHg 62%
07:00 +14°C° 0 mm 1 mps 704 mmHg 54%
08:00 +16°C° 0 mm 1 mps 705 mmHg 46%
09:00 +19°C° 0 mm 1 mps 706 mmHg 38%
10:00 +20°C° 0 mm 1 mps 706 mmHg 34%
11:00 +22°C° 0 mm 1 mps 706 mmHg 29%
12:00 +23°C° 0 mm 1 mps 706 mmHg 25%
13:00 +24°C° 0 mm 2 mps 706 mmHg 25%
14:00 +24°C° 0 mm 2 mps 706 mmHg 25%
15:00 +25°C° 0 mm 2 mps 705 mmHg 25%
16:00 +23°C° 0 mm 2 mps 705 mmHg 36%
17:00 +20°C° 0 mm 3 mps 705 mmHg 46%
18:00 +19°C° 0 mm 3 mps 705 mmHg 56%
19:00 +18°C° 0 mm 3 mps 705 mmHg 62%
20:00 +17°C° 0 mm 2 mps 705 mmHg 68%
21:00 +16°C° 0 mm 1 mps 706 mmHg 74%
22:00 +16°C° 0 mm 1 mps 706 mmHg 74%
23:00 +16°C° 0 mm 1 mps 706 mmHg 75%

29 September, Tuesday

Time Temperature Precipitation Wind Pressure Humidity
00:00 +15°C° 0 mm 1 mps 706 mmHg 76%
01:00 +15°C° 0 mm 1 mps 705 mmHg 76%
02:00 +15°C° 0 mm 1 mps 705 mmHg 76%
03:00 +14°C° 0 mm 1 mps 705 mmHg 76%
04:00 +13°C° 0 mm 0 mps 705 mmHg 77%
05:00 +13°C° 0 mm 0 mps 705 mmHg 77%
06:00 +13°C° 0 mm 0 mps 705 mmHg 78%
07:00 +14°C° 0 mm 0 mps 705 mmHg 68%
08:00 +18°C° 0 mm 1 mps 706 mmHg 58%
09:00 +19°C° 0 mm 1 mps 706 mmHg 49%
10:00 +21°C° 0 mm 1 mps 706 mmHg 43%
11:00 +23°C° 0 mm 2 mps 707 mmHg 37%
12:00 +24°C° 0 mm 3 mps 707 mmHg 31%
13:00 +25°C° 0 mm 3 mps 706 mmHg 31%
14:00 +25°C° 0 mm 3 mps 706 mmHg 30%
15:00 +26°C° 0 mm 3 mps 706 mmHg 30%
16:00 +24°C° 0 mm 3 mps 705 mmHg 35%
17:00 +22°C° 0 mm 3 mps 705 mmHg 41%
18:00 +21°C° 0 mm 2 mps 705 mmHg 46%
19:00 +20°C° 0 mm 2 mps 705 mmHg 52%
20:00 +20°C° 0 mm 1 mps 705 mmHg 57%
21:00 +19°C° 0 mm 1 mps 705 mmHg 62%
22:00 +16°C° 0 mm 0 mps 705 mmHg 65%
23:00 +16°C° 0 mm 0 mps 705 mmHg 67%

30 September, Wednesday

Time Temperature Precipitation Wind Pressure Humidity
00:00 +15°C° 0 mm 0 mps 704 mmHg 69%
01:00 +15°C° 0 mm 0 mps 704 mmHg 70%
02:00 +14°C° 0 mm 0 mps 704 mmHg 72%
03:00 +14°C° 0 mm 0 mps 703 mmHg 73%
04:00 +14°C° 0 mm 0 mps 703 mmHg 71%
05:00 +14°C° 0 mm 0 mps 703 mmHg 70%
06:00 +14°C° 0 mm 0 mps 703 mmHg 69%
07:00 +16°C° 0 mm 0 mps 704 mmHg 60%
08:00 +20°C° 0 mm 1 mps 704 mmHg 51%
09:00 +23°C° 0 mm 1 mps 704 mmHg 42%
10:00 +24°C° 0 mm 1 mps 704 mmHg 38%
11:00 +25°C° 0 mm 1 mps 704 mmHg 34%
12:00 +27°C° 0 mm 2 mps 704 mmHg 30%
13:00 +27°C° 0 mm 2 mps 704 mmHg 29%
14:00 +28°C° 0 mm 3 mps 703 mmHg 28%
15:00 +28°C° 0 mm 3 mps 703 mmHg 27%
16:00 +27°C° 0 mm 3 mps 703 mmHg 32%
17:00 +25°C° 0 mm 3 mps 702 mmHg 37%
18:00 +24°C° 0 mm 2 mps 702 mmHg 41%
19:00 +23°C° 0 mm 2 mps 702 mmHg 46%
20:00 +22°C° 0 mm 1 mps 702 mmHg 50%
21:00 +21°C° 0 mm 1 mps 702 mmHg 54%
22:00 +20°C° 0 mm 1 mps 702 mmHg 54%
23:00 +20°C° 0 mm 1 mps 701 mmHg 55%
Show more